Wind_Speed
48 49 45 44 43 46 47 51 48 50 52 48 46 43 39 41 41 38 36 38 41 43 43 44 42 43 45 46 51 53 51 50 46 46 44 43 45 46 52 51 53 47 49 48 47
51 50 45 45 43 47 50 48 47 51 49 44 43 42 41 42 41 40 40 39 44 43 41 41 38 43 44 44 47 43 37 41 44 45 44 45 45 50 58 55 48 44 41 44 39
53 55 50 45 45 46 48 46 47 48 45 42 41 41 40 41 44 43 40 42 42 37 35 36 38 39 39 38 36 35 41 34 33 37 35 33 32 37 45 47 42 35 36 39 45
57 56 53 46 47 46 46 45 44 42 42 44 41 39 42 43 43 45 46 42 33 34 34 33 34 35 33 36 33 29 33 35 29 34 34 36 37 37 40 39 47 43 40 42 48
60 59 56 58 51 50 44 45 44 38 36 39 42 42 41 37 44 43 39 37 36 34 33 34 35 32 30 28 28 32 33 32 33 31 30 35 38 39 43 37 43 42 43 45 43
60 63 60 58 58 53 46 44 40 38 40 42 45 44 37 39 39 38 39 41 39 34 33 35 33 28 27 25 26 23 24 26 27 26 29 29 33 36 40 44 44 48 56 57 52
68 67 65 63 60 56 52 45 44 40 42 47 46 41 42 38 39 39 38 37 37 32 31 35 28 29 25 27 33 27 25 27 28 29 29 34 36 30 35 42 47 44 48 52 55
67 70 67 66 61 61 56 53 47 47 46 44 43 41 39 38 42 41 40 39 41 39 38 34 34 30 33 31 28 32 37 32 37 34 31 32 40 41 42 42 47 45 51 57 54
68 69 69 70 67 64 64 60 54 54 49 50 48 49 52 47 43 41 47 50 49 48 47 45 45 43 41 38 35 38 38 40 42 45 44 40 39 46 49 50 51 51 56 58 60
73 67 73 70 68 70 69 68 66 58 56 55 55 51 53 54 53 50 47 50 56 55 53 52 50 47 45 43 45 50 50 52 52 53 55 56 52 50 59 57 58 60 64 65 61
79 75 76 69 68 69 72 73 70 64 62 62 60 58 53 57 58 58 56 56 52 60 61 60 57 57 57 51 49 54 59 61 57 56 55 63 63 60 61 64 64 60 65 66 66
90 80 78 77 70 68 75 77 77 71 69 69 66 63 64 62 61 64 60 61 58 58 62 64 57 66 62 62 59 62 66 67 62 60 61 64 68 72 68 69 68 70 71 74 74
96 89 84 81 80 74 74 78 78 80 74 70 73 70 71 68 64 72 65 66 68 65 67 64 63 66 66 65 66 71 74 72 66 66 72 81 79 81 80 77 77 81 80 80 75
99 98 98 92 87 85 79 80 81 84 80 72 77 75 77 76 71 75 75 73 73 74 73 66 68 71 65 67 71 73 77 74 72 74 68 80 76 83 87 87 92 92 91 84 80
105 106 101 103 99 94 90 90 88 85 84 82 79 82 83 82 79 78 79 78 77 81 80 76 75 77 75 74 70 75 81 78 77 82 81 85 95 76 87 93 100 97 93 92 87
112 113 111 109 106 103 105 102 94 91 81 90 83 84 86 87 85 82 86 84 86 88 83 81 80 84 78 80 83 85 82 81 84 88 82 88 99 85 96 100 103 105 101 99 97
122 120 120 116 113 113 112 110 106 96 92 93 87 88 92 89 89 89 91 89 86 86 85 84 83 84 86 84 82 84 87 89 89 93 82 85 94 99 105 106 104 103 113 115 111
126 124 124 122 121 122 123 117 107 100 97 100 95 89 91 92 92 96 91 92 88 89 85 85 86 87 89 86 87 87 92 95 96 99 100 101 99 108 111 111 111 113 114 108 110
124 127 127 125 123 126 125 123 110 108 109 107 103 99 96 101 99 91 94 90 94 90 90 88 85 91 89 87 88 92 99 102 105 104 105 103 108 115 114 117 114 111 119 127 129
124 127 121 125 129 127 128 124 118 118 117 117 109 104 101 105 100 99 95 94 94 95 87 87 87 94 89 92 94 99 102 104 109 112 112 111 111 114 115 115 119 125 130 127 119
129 126 126 126 128 130 127 122 121 124 119 120 117 115 107 111 110 109 103 100 98 99 96 93 92 94 98 100 102 105 104 108 112 115 118 120 119 119 125 127 130 129 122 108 101
130 124 127 129 126 125 121 119 125 128 123 121 120 120 115 117 117 111 108 105 104 102 101 104 101 100 102 107 109 112 109 115 119 119 123 127 126 128 133 133 126 110 102 96 91
118 122 123 129 126 124 123 122 122 128 124 121 124 123 121 121 122 117 116 113 111 106 105 108 106 106 105 110 116 117 116 117 123 127 127 130 127 133 132 126 115 99 92 86 83
110 115 115 116 116 119 121 120 121 123 125 126 125 122 119 121 124 118 119 117 119 112 112 113 114 114 110 115 120 120 118 122 127 129 135 131 132 123 118 110 99 86 81 79 77
105 108 103 102 107 112 117 120 122 121 120 123 125 131 132 126 121 118 119 118 119 115 116 118 118 120 117 119 122 122 123 125 129 133 139 132 124 110 98 90 86 81 74 71 67
99 99 94 93 96 101 103 106 109 111 114 118 120 125 128 133 133 129 124 119 118 119 120 121 119 122 117 123 127 123 127 129 134 133 132 120 99 96 82 75 75 69 62 57 56
92 91 88 87 87 86 84 92 97 101 101 106 112 117 118 116 113 116 123 125 127 128 128 126 127 126 121 130 131 119 122 123 118 109 102 90 78 77 68 67 61 54 48 46 46
Wind_Direction
286 294 286 284 284 284 285 279 280 280 280 273 271 267 265 266 270 260 261 265 265 268 272 277 282 285 283 281 273 274 275 278 284 279 281 277 275 273 274 278 280 277 282 288 279
290 289 291 286 286 287 286 281 279 277 276 271 270 262 266 263 263 259 266 268 269 274 278 283 288 295 291 284 277 279 279 283 283 282 280 281 276 271 274 274 277 279 288 286 278
288 289 289 285 287 285 286 277 276 274 268 268 267 265 266 262 262 264 264 265 271 273 282 283 289 287 287 285 280 271 265 280 274 279 275 276 276 280 279 278 277 273 282 279 275
286 288 286 287 287 283 285 278 275 269 266 268 266 266 257 259 264 266 266 265 265 276 280 277 293 278 284 286 276 281 280 288 298 303 298 293 292 289 285 283 277 273 264 270 270
282 286 287 283 285 285 281 279 275 268 265 266 263 258 257 265 264 262 265 264 268 276 274 275 276 277 284 286 289 287 288 291 290 297 310 297 295 293 283 278 268 276 273 271 281
282 280 280 285 281 285 280 280 279 274 268 262 260 256 261 265 260 262 263 264 264 273 277 274 273 267 269 278 288 274 287 279 297 303 308 311 299 288 283 284 279 275 274 275 280
279 280 277 278 279 278 275 275 271 272 272 264 261 258 261 270 267 271 264 263 271 264 267 272 267 266 264 268 276 274 282 292 301 302 307 324 311 316 297 287 278 276 283 282 281
273 276 276 277 277 276 274 275 269 268 272 264 257 263 266 274 270 270 269 265 275 264 278 264 273 267 265 271 273 274 276 289 293 294 302 302 299 312 311 306 297 299 298 296 294
272 270 274 276 275 274 276 272 272 272 267 263 264 265 273 275 270 274 268 263 272 266 273 268 274 276 273 267 275 277 280 279 278 294 302 302 305 312 311 302 299 294 296 294 294
272 270 268 270 271 274 272 274 272 272 269 267 267 267 273 278 277 274 279 270 265 265 266 270 271 273 276 280 281 283 278 277 280 288 296 301 307 310 310 305 298 293 292 296 293
272 273 270 267 268 270 272 273 272 271 272 267 268 267 267 271 274 277 278 279 270 265 267 271 269 269 271 276 279 286 284 283 281 283 288 296 301 303 303 306 300 299 297 294 294
274 270 269 268 263 260 265 267 269 268 268 269 267 267 269 266 273 275 276 279 276 273 270 269 269 267 271 271 274 283 282 286 284 288 289 295 296 299 305 304 299 296 295 294 294
271 268 266 268 268 260 259 262 264 266 264 268 266 265 264 265 262 270 274 274 276 278 276 274 273 270 266 270 274 281 280 283 283 287 290 290 295 296 301 301 300 303 296 294 294
268 268 266 266 266 265 260 260 260 259 257 257 265 265 266 265 263 266 268 268 273 276 276 275 275 277 274 270 272 278 281 283 287 284 287 294 298 293 297 301 301 301 299 293 292
267 267 267 265 268 265 265 263 259 259 257 254 257 260 263 264 264 264 267 268 270 273 275 277 276 279 278 278 280 280 277 279 281 284 285 289 289 295 294 297 297 296 294 291 289
266 262 266 265 265 268 263 261 261 258 259 261 255 253 257 262 263 263 266 268 268 271 272 270 274 275 276 280 278 281 282 281 282 285 288 284 287 292 293 294 293 294 294 292 292
263 263 262 264 264 263 265 261 261 263 261 260 256 257 254 257 259 262 266 267 270 273 268 270 268 275 275 274 279 278 277 282 285 288 289 287 289 291 293 295 292 292 294 295 297
260 259 261 260 262 261 262 259 261 263 259 259 260 256 257 257 259 258 262 264 266 270 269 270 274 269 275 273 277 279 278 278 281 288 288 291 292 291 294 293 292 294 294 293 292
259 258 258 255 258 259 259 261 259 259 258 258 261 261 262 259 259 262 263 265 264 269 268 270 270 270 270 273 275 276 279 279 281 284 288 289 292 291 294 292 294 293 294 296 298
258 257 255 254 254 252 256 259 259 259 260 259 260 261 260 260 260 262 263 263 266 271 268 272 271 272 272 275 276 274 277 279 282 285 287 290 290 291 292 292 292 294 297 297 297
259 257 254 254 254 253 251 253 255 257 257 258 261 261 261 260 264 263 264 266 268 268 269 268 270 269 272 274 274 276 278 281 284 287 288 290 292 292 295 294 295 297 297 296 294
257 257 252 252 252 253 253 252 251 252 255 256 257 259 259 262 263 262 263 265 268 267 267 269 272 272 272 277 278 279 281 282 284 286 290 291 294 295 297 297 297 296 296 295 291
254 253 250 251 252 254 253 252 250 251 248 253 253 255 257 259 262 262 264 264 266 267 268 271 271 271 273 275 277 280 283 283 285 287 289 290 294 298 297 296 296 297 294 290 287
255 252 251 252 252 251 251 249 250 250 249 248 249 253 256 257 259 261 262 263 265 266 268 269 272 273 272 273 277 281 282 284 286 288 289 294 296 296 295 294 294 292 288 287 287
254 254 253 251 251 249 249 249 251 252 250 250 250 251 252 253 256 259 261 263 266 268 269 269 270 272 274 275 278 281 282 283 285 287 290 294 294 293 292 293 291 291 289 287 287
253 254 255 253 250 250 250 252 252 253 251 251 251 252 253 252 254 256 258 261 260 264 267 269 271 272 273 276 280 282 282 281 282 286 286 289 292 289 290 288 287 288 287 286 285
252 253 253 252 252 252 251 249 251 253 254 253 252 252 253 256 258 260 260 261 262 264 264 266 268 271 274 275 280 283 281 281 283 287 287 287 288 284 288 286 289 286 286 285 285
Height
10781 10781 10781 10780 10780 10781 10780 10780 10780 10780 10779 10779 10781 10783 10785 10786 10786 10784 10788 10787 10789 10789 10790 10790 10788 10787 10784 10784 10781 10780 10777 10777 10778 10777 10780 10784 10785 10779 10771 10777 10778 10776 10774 10774 10775
10771 10772 10772 10771 10771 10772 10770 10770 10769 10770 10770 10770 10772 10774 10776 10778 10778 10777 10780 10781 10781 10783 10782 10781 10780 10778 10775 10773 10773 10773 10769 10771 10768 10770 10768 10773 10775 10771 10764 10767 10764 10764 10766 10765 10766
10761 10763 10763 10763 10763 10762 10760 10760 10760 10759 10761 10762 10764 10766 10769 10770 10770 10770 10773 10772 10773 10773 10773 10772 10772 10770 10768 10765 10764 10764 10762 10762 10762 10756 10762 10764 10765 10763 10758 10757 10754 10758 10758 10757 10756
10751 10751 10753 10754 10753 10752 10751 10751 10751 10751 10752 10756 10757 10759 10761 10761 10761 10763 10763 10763 10763 10763 10763 10762 10762 10761 10760 10759 10758 10757 10756 10755 10754 10748 10750 10753 10755 10755 10752 10751 10744 10749 10750 10748 10746
10740 10741 10742 10744 10744 10744 10743 10743 10743 10743 10744 10747 10749 10751 10754 10755 10753 10755 10754 10755 10755 10755 10754 10753 10754 10753 10752 10752 10752 10750 10751 10750 10748 10745 10741 10742 10746 10746 10740 10747 10744 10736 10739 10739 10737
10728 10730 10731 10732 10733 10734 10735 10735 10735 10737 10738 10739 10741 10744 10745 10748 10746 10746 10746 10746 10747 10747 10747 10746 10746 10744 10744 10745 10746 10745 10744 10744 10742 10740 10736 10735 10736 10736 10733 10730 10733 10734 10730 10729 10726
10717 10717 10719 10720 10721 10723 10725 10726 10725 10728 10729 10733 10734 10736 10738 10738 10740 10739 10739 10738 10739 10739 10739 10739 10738 10737 10737 10737 10738 10738 10737 10735 10734 10734 10732 10728 10725 10731 10727 10722 10721 10724 10721 10718 10716
10702 10704 10706 10708 10708 10710 10713 10716 10717 10719 10721 10724 10728 10730 10728 10732 10732 10731 10731 10731 10732 10732 10731 10731 10732 10731 10730 10729 10728 10727 10728 10727 10723 10725 10725 10725 10716 10718 10719 10716 10711 10713 10712 10707 10704
10686 10690 10692 10692 10694 10697 10698 10702 10704 10707 10710 10714 10717 10720 10718 10719 10722 10723 10724 10723 10722 10723 10722 10721 10722 10721 10720 10719 10718 10718 10717 10716 10712 10712 10716 10716 10714 10709 10708 10708 10704 10699 10695 10693 10693
10670 10673 10675 10678 10680 10682 10683 10686 10689 10694 10700 10698 10702 10709 10708 10708 10708 10709 10713 10712 10712 10711 10710 10711 10711 10710 10707 10710 10708 10704 10705 10703 10700 10699 10701 10700 10701 10700 10695 10694 10692 10689 10684 10678 10679
10650 10654 10655 10658 10663 10665 10667 10668 10672 10681 10684 10684 10689 10692 10696 10695 10694 10694 10696 10697 10700 10701 10698 10698 10702 10696 10696 10696 10696 10695 10688 10687 10685 10688 10688 10684 10684 10687 10687 10683 10674 10674 10672 10667 10669
10631 10634 10636 10638 10643 10646 10647 10649 10654 10664 10667 10668 10672 10679 10676 10681 10681 10677 10683 10681 10685 10685 10685 10685 10689 10681 10683 10682 10682 10680 10677 10673 10672 10671 10674 10668 10670 10665 10667 10667 10658 10656 10655 10650 10653
10609 10613 10618 10618 10622 10627 10631 10628 10637 10641 10651 10658 10654 10660 10657 10665 10670 10660 10668 10666 10665 10670 10666 10672 10673 10667 10668 10670 10666 10663 10661 10661 10662 10661 10655 10645 10655 10645 10640 10641 10641 10639 10632 10633 10638
10586 10590 10593 10600 10602 10606 10610 10615 10616 10618 10632 10647 10637 10645 10641 10645 10654 10646 10646 10651 10652 10651 10649 10658 10653 10651 10655 10658 10652 10649 10643 10644 10646 10645 10651 10626 10636 10633 10622 10613 10610 10616 10615 10613 10617
10563 10563 10569 10578 10579 10585 10589 10592 10594 10601 10612 10620 10630 10624 10624 10624 10633 10633 10625 10631 10638 10634 10635 10641 10639 10635 10638 10636 10635 10636 10631 10628 10622 10627 10634 10622 10590 10636 10610 10600 10589 10587 10592 10594 10601
10537 10540 10543 10547 10558 10564 10562 10561 10572 10581 10601 10593 10610 10607 10609 10607 10611 10619 10611 10613 10617 10618 10620 10624 10622 10622 10619 10619 10617 10616 10611 10609 10605 10605 10621 10607 10579 10614 10591 10588 10579 10566 10564 10564 10569
10508 10512 10516 10523 10529 10535 10533 10535 10544 10568 10572 10568 10583 10589 10591 10590 10594 10600 10595 10596 10599 10599 10602 10607 10608 10602 10603 10604 10602 10597 10588 10587 10590 10582 10597 10589 10575 10567 10570 10571 10559 10552 10541 10531 10528
10477 10483 10486 10499 10502 10500 10502 10508 10533 10549 10543 10539 10552 10568 10572 10569 10573 10577 10580 10581 10581 10580 10584 10590 10589 10582 10584 10586 10583 10580 10571 10565 10566 10568 10574 10568 10565 10542 10539 10540 10533 10526 10519 10509 10505
10440 10447 10459 10467 10469 10469 10472 10480 10519 10518 10514 10519 10524 10541 10547 10542 10552 10555 10561 10563 10559 10560 10568 10571 10571 10563 10566 10568 10569 10567 10546 10542 10542 10544 10543 10552 10547 10523 10529 10514 10506 10497 10488 10478 10471
10402 10411 10426 10430 10435 10438 10441 10470 10488 10488 10493 10490 10505 10512 10518 10516 10528 10530 10536 10540 10541 10540 10551 10551 10551 10541 10546 10547 10544 10538 10535 10530 10516 10519 10518 10522 10520 10506 10504 10495 10480 10472 10463 10450 10447
10364 10378 10391 10391 10397 10404 10427 10450 10453 10452 10468 10466 10477 10481 10498 10493 10496 10502 10511 10515 10521 10521 10524 10531 10530 10533 10523 10524 10519 10517 10519 10507 10501 10490 10481 10489 10496 10480 10472 10467 10455 10447 10434 10425 10417
10326 10344 10354 10352 10366 10381 10403 10418 10421 10418 10438 10444 10452 10451 10467 10467 10468 10479 10487 10490 10495 10503 10507 10499 10507 10513 10511 10500 10492 10486 10498 10488 10474 10476 10466 10452 10465 10453 10438 10427 10421 10421 10410 10400 10389
10294 10304 10312 10322 10342 10360 10368 10378 10384 10390 10410 10420 10422 10425 10434 10443 10445 10455 10461 10463 10471 10480 10484 10479 10482 10486 10492 10481 10463 10467 10472 10465 10453 10444 10449 10436 10439 10421 10409 10396 10388 10394 10384 10374 10366
10262 10268 10284 10299 10315 10324 10334 10344 10353 10361 10378 10395 10398 10400 10406 10416 10417 10434 10434 10439 10440 10457 10463 10459 10456 10460 10465 10456 10448 10448 10448 10439 10425 10423 10407 10418 10408 10403 10383 10375 10368 10369 10360 10352 10345
10234 10238 10261 10280 10288 10291 10299 10312 10326 10336 10349 10359 10371 10376 10380 10387 10394 10407 10410 10418 10422 10433 10434 10432 10433 10430 10437 10432 10428 10429 10427 10418 10405 10395 10382 10394 10385 10372 10367 10362 10347 10342 10339 10333 10330
10208 10218 10237 10251 10259 10268 10280 10295 10302 10308 10319 10329 10340 10347 10349 10363 10369 10382 10394 10405 10404 10399 10401 10405 10411 10406 10420 10406 10402 10412 10400 10386 10378 10381 10368 10363 10365 10341 10348 10342 10332 10328 10322 10317 10311
10192 10202 10213 10226 10238 10250 10266 10268 10275 10280 10291 10306 10314 10317 10326 10341 10357 10366 10369 10372 10378 10380 10382 10383 10381 10383 10398 10376 10381 10392 10369 10357 10360 10356 10345 10348 10344 10330 10331 10323 10316 10311 10309 10305 10300